User: anonymous   Login
Location: Wellington
(41.3000°S, 174.7830°E)
Time: 04:57:03
(UTC+13:00)
Language:

Resurs 01 Rocket - Orbit

View from above orbital plane
View from above orbital plane
View from above satellite
View from above satellite

Ground track
Ground track

The orbit data is extracted from the following two-line orbital elements,

1 23343U 94074B   19294.80868635 -.00000007 +00000-0 +63930-5 0  9992
2 23343 098.0372 344.4231 0006558 190.8906 300.0966 14.76794806343257
Epoch (UTC): 21 October 2019 19:24:30
Eccentricity: 0.0006558
inclination: 98.0372°
perigee height: 635 km
apogee height: 644 km
right ascension of ascending node: 344.4231°
argument of perigee: 190.8906°
revolutions per day: 14.76794806
mean anomaly at epoch: 300.0966°
orbit number at epoch: 34325

The dashed part of the orbit path shows where the satellite is in the earth's shadow,  

DLR